This is the latest recevied weather packets stored in our database for station/object W5TUX. If no packets are shown the sender has not sent any weather packets the latest 1 day(s).
| Time | Temp. | Humidity | Pressure | Rain* | Wind** | Luminosity | Snow |
|---|---|---|---|---|---|---|---|
| 1778026244 | 24.44° C | 67% | 1010.6 hPa | 0 mm | 0 m/s | 14 W/m² | - |
| 1778025942 | 25° C | 66% | 1010.5 hPa | 0 mm | 0.89 m/s, 169° | 29 W/m² | - |
| 1778025639 | 25.56° C | 66% | 1010.4 hPa | 0 mm | 0.45 m/s, 346° | 42 W/m² | - |
| 1778025337 | 25.56° C | 65% | 1010.2 hPa | 0 mm | 0.45 m/s, 274° | 38 W/m² | - |
| 1778025033 | 26.11° C | 64% | 1010.2 hPa | 0 mm | 0.89 m/s, 290° | 41 W/m² | - |
| 1778024730 | 26.11° C | 64% | 1010.1 hPa | 0 mm | 0.45 m/s, 300° | 35 W/m² | - |
| 1778024427 | 26.11° C | 63% | 1010.1 hPa | 0 mm | 0.45 m/s, 228° | 42 W/m² | - |
| 1778024125 | 26.67° C | 62% | 1010 hPa | 0 mm | 0.89 m/s, 236° | 45 W/m² | - |
| 1778023822 | 26.67° C | 62% | 1010.2 hPa | 0 mm | 0.45 m/s, 339° | 39 W/m² | - |
| 1778023520 | 27.22° C | 61% | 1010.1 hPa | 0 mm | 0.89 m/s, 252° | 35 W/m² | - |
| 1778023217 | 27.78° C | 60% | 1010 hPa | 0 mm | 0.45 m/s, 204° | 34 W/m² | - |
| 1778022914 | 27.78° C | 59% | 1009.6 hPa | 0 mm | 0.89 m/s, 272° | 33 W/m² | - |
| 1778022613 | 28.89° C | 56% | 1009.6 hPa | 0 mm | 1.34 m/s, 303° | 46 W/m² | - |
| 1778022309 | 28.89° C | 52% | 1009.4 hPa | 0 mm | 0.45 m/s, 331° | 55 W/m² | - |
| 1778022006 | 28.89° C | 51% | 1009.2 hPa | 0 mm | 0.89 m/s, 115° | 63 W/m² | - |
| 1778021703 | 29.44° C | 49% | 1009.2 hPa | 0 mm | 0.89 m/s, 7° | 52 W/m² | - |
| 1778021399 | 29.44° C | 49% | 1009.3 hPa | 0 mm | 0.45 m/s, 227° | 70 W/m² | - |
| 1778021096 | 29.44° C | 48% | 1009.2 hPa | 0 mm | 1.34 m/s, 59° | 64 W/m² | - |
| 1778020793 | 30° C | 48% | 1009.2 hPa | 0 mm | 0.89 m/s, 258° | 68 W/m² | - |
| 1778020490 | 30.56° C | 48% | 1008.9 hPa | 0 mm | 0.89 m/s, 319° | 61 W/m² | - |
| 1778020186 | 31.11° C | 48% | 1008.9 hPa | 0 mm | 1.79 m/s, 313° | 82 W/m² | - |
| 1778019883 | 31.67° C | 50% | 1008.7 hPa | 0 mm | 1.34 m/s, 208° | 88 W/m² | - |
| 1778019578 | 32.22° C | 53% | 1008.7 hPa | 0 mm | 1.34 m/s, 165° | 101 W/m² | - |
| 1778019276 | 32.22° C | 54% | 1008.6 hPa | 0 mm | 0 m/s | 102 W/m² | - |
| 1778018973 | 31.67° C | 54% | 1008.5 hPa | 0 mm | 0.89 m/s, 223° | 137 W/m² | - |
* Rain latest hour (hover to see other rain measurements)
** Current wind speed in m/s (hover to see current wind gust speed)